Location: Rounton
(54.4000°N, 1.3500°W)
Time: 22:07:15
(UTC+00:00)

deb Explorer IX - Pass Details

Date: 16 December 2021
Orbit: 544 x 1082 km, 38.8° (Epoch: 27 January)

Event Time Altitude Azimuth Distance (km) Brightness Sun altitude
Rises 06:55:19 0° 234° (SW) 3,684 ? -11.3°
Reaches altitude 10° 06:59:01 10° 216° (SW) 2,639 ? -10.8°
Maximum altitude 07:02:54 17° 178° (S) 2,054 ? -10.3°
Drops below altitude 10° 07:06:30 10° 139° (SE) 2,400 ? -9.9°
Sets 07:09:39 0° 120° (ESE) 3,217 ? -9.5°
